Location: Lawrence Hall of Science
(37.8785°N, 122.2415°W)
Time: 09:57:12
(UTC-07:00)

Daily predictions for brighter satellites

Satellite Brightness Start Highest point End
(mag) Time Altitude Azimuth Time Altitude Azimuth Time Altitude Azimuth
NOAA 12 4.5 19:17:37 10° SE 19:22:33 44° ENE 19:27:33 10° N
Cosmos-2242 3.8 19:19:38 10° SSE 19:23:27 30° E 19:27:18 10° NNE
Cosmos 2369 Rocket 3.9 19:20:25 10° NNE 19:23:33 15° NE 19:26:40 10° E
Meteor 1-22 Rocket 4.2 19:21:06 10° S 19:26:27 85° W 19:31:46 10° N
Cosmos 1603 4.0 19:24:23 10° S 19:29:52 48° ESE 19:35:23 10° NNE
OAO 3 Rocket 3.4 19:25:57 10° W 19:30:37 62° S 19:35:09 11° ESE
Cosmos 1470 4.4 19:28:42 10° ESE 19:30:52 15° E 19:33:01 10° NE
ATLAS CENTAUR R/B 3.4 19:26:32 10° SW 19:30:56 89° NW 19:44:51 10° NE
BREEZE-M DEB (TANK) 2.9 19:30:52 10° WNW 19:33:00 40° SW 19:37:22 10° SE
Meteor 1-24 Rocket 3.9 19:28:06 10° NNW 19:33:41 77° W 19:39:03 10° S
NOSS 3-2 (A) 4.1 19:30:00 10° SW 19:35:56 59° NW 19:42:26 10° NNE
Cosmos 1452 Rocket 3.6 19:31:37 10° N 19:36:49 58° ENE 19:41:58 10° SSE
Cosmos 1674 4.2 19:36:52 10° NNE 19:39:33 18° ENE 19:41:20 14° ESE
SJ-6B 2.8 19:39:19 10° SSE 19:43:16 74° ENE 19:47:22 10° N
ASTRO E2 4.2 19:40:38 10° WSW 19:44:08 28° S 19:47:22 11° SE
ASTEX 1 4.4 19:40:59 10° NE 19:44:55 24° E 19:48:51 10° SE
In-Cosmos 22 4.2 19:39:29 10° N 19:45:16 68° E 19:50:57 10° SSE
Cosmos 2034 Rocket 4.0 19:41:06 10° S 19:47:17 69° E 19:53:35 10° NNE
Cosmos 1464 Rocket 4.1 19:41:27 10° S 19:47:42 86° W 19:53:54 10° N
Cosmos 1842 Rocket 4.4 19:44:28 10° SSE 19:48:05 26° E 19:51:43 10° NNE
Cosmos 1408 Rocket 3.4 19:44:12 10° N 19:48:34 78° E 19:52:51 10° S
Cosmos 468 4.4 19:47:35 10° S 19:52:48 76° ESE 19:58:02 10° NNE
Cosmos 1484 Rocket 4.4 19:50:04 10° SSW 19:53:39 38° W 19:57:19 10° NNW
Cosmos 1420 Rocket 4.3 19:51:42 10° N 19:56:51 49° ENE 20:01:59 10° SE
ISS -3.5 19:54:38 10° SW 19:57:52 83° SE 20:00:05 19° NE
Cosmos 1758 3.3 19:53:48 10° S 19:57:53 88° WNW 20:02:01 10° N
BREEZE-M TANK 4.1 19:50:29 10° WNW 19:59:24 46° SW 20:02:34 10° SSE
ATLAS 5 CENTAUR R/B 3.0 19:55:29 10° SW 20:00:03 45° NW 20:05:00 10° NNE
ALOS 2.8 19:59:05 15° SE 20:02:30 36° ENE 20:06:46 10° N
Helios 1A 3.0 19:58:50 10° SSE 20:02:57 57° ENE 20:07:05 10° N
FengYun 1-2 T 4.3 19:58:25 10° SSE 20:03:45 54° ENE 20:09:06 10° N
CENTAUR R/B 2.6 19:58:24 10° S 20:04:03 48° ESE 20:10:21 10° NE
Cosmos 1544 3.0 20:01:08 10° S 20:04:51 74° E 20:08:36 10° N
Spot 2 Rocket 3.4 20:05:09 10° SSE 20:10:10 81° ENE 20:15:14 10° N
Cosmos 1048 Rocket 3.9 20:08:41 10° S 20:13:59 77° ESE 20:19:14 10° NNE
Resurs 1-3 3.5 20:09:40 10° SSE 20:14:01 68° ENE 20:18:23 10° N
HJ-1C 3.5 20:12:14 10° S 20:15:34 76° WSW 20:18:57 10° NNW
SL-8 R/B 4.0 20:12:14 10° WSW 20:16:59 64° NNW 20:20:21 19° NE
Cosmos 1269 Rocket 4.0 20:12:00 10° SSW 20:17:17 85° WNW 20:22:36 10° NNE
Cosmos 1743 Rocket 3.4 20:14:13 10° N 20:18:40 78° E 20:23:03 10° S
Resurs 01 Rocket 1.7 20:15:33 10° S 20:19:59 79° WSW 20:24:28 10° NNW
METEOR-M 4.4 20:15:23 10° S 20:20:43 72° WSW 20:26:05 10° NNW
CZ-2D R/B 3.4 20:26:23 48° E 20:26:30 48° ENE 20:30:15 10° N
Cosmos 1174 3.9 20:21:41 10° SSW 20:26:38 68° ESE 20:28:41 28° NE
Meteor 1-21 Rocket 4.4 20:22:03 10° NNW 20:27:34 69° W 20:33:03 10° S
Abrixas 4.1 20:27:14 10° W 20:29:56 30° NNW 20:30:38 26° N
Cosmos 158 Rocket 3.7 20:26:58 10° S 20:31:48 65° ESE 20:36:38 10° NNE
FENGYUN 3A 3.5 20:32:55 17° SSE 20:37:08 80° ENE 20:42:33 10° N
Helios 1B rocket 3.6 20:33:15 10° N 20:37:11 45° WNW 20:41:06 10° SW
CZ-4B DEB 3.1 20:38:16 58° NNW 20:38:16 58° NNW 20:40:59 10° NNW
H-2A R/B 2.7 20:38:39 68° ENE 20:38:39 68° ENE 20:42:22 10° N
GP-B 3.2 20:41:48 10° N 20:45:35 56° NE 20:45:35 56° NE
GPS 2-04 Rocket1 3.2 20:43:10 10° WSW 20:45:48 44° SW 20:45:48 44° SW
USA 215 3.5 20:41:17 10° NE 20:47:47 70° NW 20:54:16 10° WSW
SeaSat 1 4.2 20:54:19 19° S 20:54:19 19° S 20:55:43 10° S
Cosmos 2279 Rocket 4.2 20:54:12 47° ENE 20:54:12 47° ENE 20:59:27 10° NNE
ERS-1 Rocket 4.3 20:55:37 27° NNE 20:55:37 27° NNE 20:58:20 10° N
Cosmos 1092 Rocket 4.3 20:57:25 10° NNW 21:03:33 64° W 21:09:35 10° S
Gbstr 26 Del rocket 3.8 20:59:17 10° WSW 21:03:44 57° NNW 21:05:03 43° NNE
Cosmos 1943 Rocket 3.1 20:58:41 10° N 21:02:41 35° NNE 21:02:41 35° NNE
Cosmos 1733 4.4 21:00:18 10° SSW 21:03:58 41° W 21:07:39 10° N
Cosmos 2151 3.9 21:02:34 10° N 21:05:22 41° NNW 21:05:22 41° NNW
Cosmos 1943 3.7 21:01:52 10° SW 21:07:25 58° WNW 21:12:58 10° NNE
Cosmos 1110 Rocket 4.3 21:02:19 10° NNW 21:06:42 55° NNE 21:06:42 55° NNE
Cosmos 2369 Rocket 2.1 21:02:34 10° NNW 21:08:15 82° WSW 21:09:00 68° S
Cosmos 1655 Rocket 3.8 21:04:12 10° N 21:10:25 72° E 21:10:29 72° E
OAO 3 Rocket 4.3 21:09:24 10° W 21:12:59 36° SW 21:12:59 36° SW
Cosmos 2026 Rocket 3.8 21:09:28 10° N 21:15:37 87° E 21:16:08 76° SSE
Cosmos 1634 Rocket 4.4 21:11:14 10° SSW 21:17:23 60° W 21:23:31 10° N
Cosmos 2263 4.2 21:12:16 10° NNW 21:17:40 78° N 21:17:40 78° N
ISS 0.3 21:32:39 10° WNW 21:32:47 11° WNW 21:32:47 11° WNW
CENTAUR R/B 4.1 21:49:29 10° WSW 21:54:55 31° NW 22:00:58 10° NNE
BREEZE-M DEB (TANK) 4.5 21:47:58 10° SW 21:59:53 58° SW 21:59:53 58° SW
